Zurück zum Katalog

STARLINK-2657

AktivKommunikationVLEO
NORAD 48655·PAYLOAD·🇺🇸 United States

Gestartet May 26, 2021 von Cape Canaveral Space Force Station

Loading…

Nächste Überflüge (nächste 24 Stunden)

TLE

AktuellSource: CelesTrak SupGP

Epoche: Sep 14, 2026, 13:41 UTC

1 48655C 21044T   26257.57062500  .00043538  00000+0  14002-2 0  2574
2 48655  53.1606 314.9882 0001352  76.6620 338.1801 15.31677315    18

Verfolge STARLINK-2657 in Echtzeit mit AllMySat

Download on the App Store